Content
SEND FEEDBACK

Daily
Averages
Monthly
Summary
Philippines

QUEZON CITY, PHILIPPINES


Home > Asia > Philippines
Elevation: 46 meters     Latitude: 14 39N     Longitude: 121 03E

WEATHER
 
SELECT A DAY
Number of Records: 178,193;   Date Range: 7/1/96 - 11/27/14
 
SHARE

PRINT THIS DATA

[ ← Previous Day ]
WEATHER ALMANAC - 6 APRIL, 2013
[ Next Day → ]
[ °F ]   °C
Weather ElementAverageHighLow
Temperature29.7 °C33 °C (1:00 pm)27 °C (5:00 am)
Dewpoint25.3 °C26 °C (2:00 am)20.6 °C (5:00 am)
Humidity76.4 %94 % (5:00 am)59 % (5:00 am)
Barometer1006.4 hPa1008.5 hPa (8:00 am)1004.1 hPa (3:00 pm)
Wind Speed13.7 km/h31.5 km/h (3:00 pm)
Weather ElementAverage
Visibility9.8 km
Wind DirectionSSW (209 °)

Weather ElementTotal
Precipitation---
Cooling Degree Days11.7 (Base 18.3)
Growing Degree Days20 (Base 10)
Averaged from 31 records on 6 April, 2013
WEATHER CONDITIONS BREAKOUT
WIND DIRECTION BREAKOUT
WEATHER BY HOUR - 6 APRIL, 2013
[ °F ]   °C
Local TimeTemperatureDewpointHumidityBarometerVisibilityWind DirectionWind SpeedGust SpeedPrecipitationEventsConditions
1:00 AM28 °C25 °C84 %1007.1 hPa10 kmVariable3.7 km/hScattered Clouds
2:00 AM27.8 °C25.6 °C86 %1006.8 hPa9.7 kmWSW (250°)3.5 km/hScattered Clouds
2:00 AM28 °C26 °C89 %1006.1 hPa10 kmWSW (250°)3.7 km/hPartly Cloudy
3:00 AM28 °C26 °C89 %1006.1 hPa10 kmVariable3.7 km/hPartly Cloudy
4:00 AM29 °C26 °C84 %1006.1 hPa10 kmVariable1.9 km/hPartly Cloudy
5:00 AM27.2 °C20.6 °C59 %1006.4 hPa9.7 kmSSW (210°)3.5 km/hPartly Cloudy
5:00 AM27 °C26 °C94 %1006.1 hPa10 kmVariable1.9 km/hScattered Clouds
6:00 AM27 °C26 °C94 %1006.1 hPa9 kmCalmPartly Cloudy
7:00 AM28 °C26 °C89 %1007.1 hPa10 kmSSW (210°)3.7 km/hPartly Cloudy
8:00 AM28.9 °C25.6 °C78 %1008.5 hPa9.7 kmWSW (250°)7.2 km/hScattered Clouds
8:00 AM29 °C26 °C84 %1008.1 hPa10 kmWSW (250°)9.3 km/hPartly Cloudy
9:00 AM31 °C25 °C70 %1008.1 hPa10 kmWNW (290°)11.1 km/hPartly Cloudy
10:00 AM31 °C25 °C70 %1008.1 hPa10 kmWest (280°)16.7 km/hPartly Cloudy
11:00 AM31.7 °C25.6 °C63 %1008.5 hPa9.7 kmWest (280°)18 km/hScattered Clouds
11:00 AM32 °C26 °C70 %1008.1 hPa10 kmWest (280°)18.5 km/hPartly Cloudy
12:00 PM32 °C25 °C66 %1007.1 hPa10 kmWest (280°)18.5 km/hPartly Cloudy
1:00 PM33 °C25 °C63 %1006.1 hPa10 kmWest (270°)25.9 km/hPartly Cloudy
2:00 PM32.2 °C25 °C59 %9.7 kmWSW (250°)10.8 km/hScattered Clouds
2:00 PM33 °C25 °C63 %1005.1 hPa10 kmWest (270°)29.6 km/hPartly Cloudy
3:00 PM32 °C26 °C70 %1004.1 hPa10 kmSouth (170°)31.5 km/hPartly Cloudy
4:00 PM32 °C26 °C70 %1004.1 hPa10 kmWest (260°)29.6 km/hPartly Cloudy
5:00 PM31.1 °C25 °C63 %1004.4 hPa9.7 kmWSW (250°)25.3 km/hScattered Clouds
5:00 PM31 °C25 °C70 %1004.1 hPa10 kmWSW (250°)25.9 km/hPartly Cloudy
6:00 PM30 °C26 °C79 %1005.1 hPa10 kmWSW (250°)18.5 km/hPartly Cloudy
7:00 PM29 °C25 °C79 %1005.1 hPa10 kmWSW (250°)18.5 km/hPartly Cloudy
8:00 PM28.9 °C25 °C75 %1006.1 hPa9.7 kmWSW (250°)21.6 km/hScattered Clouds
8:00 PM29 °C25 °C79 %1006.1 hPa10 kmWSW (250°)18.5 km/hPartly Cloudy
9:00 PM29 °C25 °C79 %1007.1 hPa10 kmWSW (250°)18.5 km/hPartly Cloudy
10:00 PM28 °C25 °C84 %1007.1 hPa10 kmWest (260°)13 km/hPartly Cloudy
11:00 PM27.8 °C25 °C81 %1007.5 hPa9.7 kmSSW (210°)3.5 km/hScattered Clouds
11:00 PM28 °C25 °C84 %1007.1 hPa10 kmSSW (210°)7.4 km/hPartly Cloudy
Hourly data recorded from RPLL, located 0 kilometers away from Quezon City, Philippines







STORIES FROM OUR PARTNERS